This is the latest recevied weather packets stored in our database for station/object WX7FGZ-7. If no packets are shown the sender has not sent any weather packets the latest 10 day(s).
| Time | Temp. | Humidity | Pressure | Rain* | Wind** | Luminosity | Snow |
|---|---|---|---|---|---|---|---|
| 1777693493 | 11.67° C | 30% | 1018.7 hPa | 0 mm | - | - | - |
| 1777693184 | 11.67° C | 29% | 1018.6 hPa | 0 mm | - | - | - |
| 1777692839 | 12.22° C | 29% | 1018.5 hPa | 0 mm | - | - | - |
| 1777692575 | 12.22° C | 29% | 1018.5 hPa | 0 mm | - | - | - |
| 1777692292 | 12.78° C | 28% | 1018.5 hPa | 0 mm | - | - | - |
| 1777691986 | 13.33° C | 28% | 1018.5 hPa | 0 mm | - | - | - |
| 1777691523 | 14.44° C | 26% | 1018.9 hPa | 0 mm | - | - | - |
| 1777691392 | 13.89° C | 26% | 1018.2 hPa | 0 mm | - | - | - |
| 1777691123 | 14.44° C | 25% | 1018.9 hPa | 0 mm | - | - | - |
| 1777691091 | 14.44° C | 26% | 1018.9 hPa | 0 mm | - | - | - |
| 1777690771 | 14.44° C | 25% | 1018.9 hPa | 0 mm | - | - | - |
| 1777690723 | 15° C | 25% | 1018.8 hPa | 0 mm | - | - | - |
| 1777690510 | 15.56° C | 25% | 1018.7 hPa | 0 mm | - | - | - |
| 1777690471 | 15° C | 25% | 1018.8 hPa | 0 mm | - | - | - |
| 1777690171 | 15.56° C | 25% | 1018.7 hPa | 0 mm | - | - | - |
| 1777690122 | 15.56° C | 24% | 1018.7 hPa | 0 mm | - | - | - |
| 1777689871 | 15.56° C | 24% | 1018.7 hPa | 0 mm | - | - | - |
| 1777689837 | 16.11° C | 24% | 1018.6 hPa | 0 mm | - | - | - |
| 1777689571 | 16.11° C | 24% | 1018.6 hPa | 0 mm | - | - | - |
| 1777689501 | 16.11° C | 23% | 1018.5 hPa | 0 mm | - | - | - |
| 1777689271 | 16.11° C | 23% | 1018.5 hPa | 0 mm | - | - | - |
| 1777688674 | 16.67° C | 23% | 1018.3 hPa | 0 mm | - | - | - |
| 1777685149 | 18.89° C | 20% | 1017.5 hPa | 0 mm | - | - | - |
| 1777684771 | 18.89° C | 20% | 1017.5 hPa | 0 mm | - | - | - |
| 1777684517 | 18.89° C | 21% | 1017.5 hPa | 0 mm | - | - | - |
* Rain latest hour (hover to see other rain measurements)
** Current wind speed in m/s (hover to see current wind gust speed)